Location: Izdebno
(52.6670°N, 16.2170°E)
Time: 15:48:32
(UTC+01:00)

Explorer 11/Cluster Stage 4 - All Passes

Search period start: 27 January 2023 00:00
Search period end: 06 February 2023 00:00
Orbit: 466 x 1244 km, 28.8° (Epoch: 26 January)

Date Brightness Start Highest point End Pass type
(mag) Time Alt. Az. Time Alt. Az. Time Alt. Az.
02 Feb - 07:57:00 10° SSW 07:57:41 10° S 07:58:21 10° S daylight
03 Feb - 05:56:38 10° S 05:56:50 10° S 05:57:03 10° S visible
03 Feb - 07:43:08 10° SSW 07:44:02 10° S 07:44:57 10° S daylight
04 Feb - 05:41:57 10° S 05:43:10 10° S 05:44:22 10° SSE visible
04 Feb - 07:29:39 10° SSW 07:30:22 10° S 07:31:05 10° S daylight
05 Feb - 05:28:01 10° S 05:29:28 11° S 05:30:57 10° SSE visible
